Temperature
17 17 17 17 17 18 18 18 18 18 18 18 18 18 18 18 18 18 18 17 17 17 18 18 18 18 18 18 18 18 18 18 18 18 18 18 18 18 18 18 18 18 18
17 17 17 17 17 17 17 17 17 17 18 18 18 18 18 18 17 17 17 17 17 17 17 17 18 18 18 18 17 18 18 18 17 17 17 18 18 18 18 18 18 18 18
17 17 17 17 17 17 17 17 17 17 17 17 17 18 17 17 17 17 17 17 17 17 17 17 17 17 17 17 17 17 17 17 17 17 17 17 17 17 17 17 18 18 18
17 17 17 17 17 17 17 17 17 17 17 17 17 17 17 17 17 17 17 17 17 17 17 17 17 17 17 17 17 17 17 17 17 17 17 17 17 17 17 17 17 18 18
17 17 17 17 17 17 17 17 17 17 17 17 17 17 17 17 17 17 17 17 17 17 17 17 17 17 17 17 17 17 17 17 17 17 17 17 17 17 17 17 17 17 17
18 17 17 17 17 17 17 17 17 17 17 17 17 17 17 17 17 17 17 17 17 17 17 17 17 17 17 17 17 17 17 17 17 17 17 17 17 17 17 17 17 17 17
17 17 17 17 17 17 17 17 17 17 17 17 17 17 17 17 17 17 17 17 17 17 17 17 17 17 16 16 16 16 16 17 17 17 17 17 17 17 17 17 17 17 17
18 17 17 17 17 17 17 17 17 17 17 17 17 17 17 17 17 17 17 17 17 17 17 17 17 16 16 16 16 16 16 16 17 17 17 17 17 17 17 17 17 17 17
17 17 17 17 17 17 17 17 17 17 17 17 17 17 17 17 17 17 17 16 16 16 16 16 16 16 16 16 16 16 16 16 16 16 16 16 16 17 17 16 17 17 17
17 17 17 17 17 17 17 17 17 17 17 16 16 16 16 16 16 16 16 16 16 16 16 16 16 16 16 16 16 16 16 16 16 16 16 16 16 16 16 16 16 16 16
17 17 17 17 17 17 17 17 17 16 16 16 16 16 16 16 16 16 16 16 16 16 16 16 16 16 16 16 16 16 16 16 16 16 16 16 16 16 16 16 16 16 16
17 17 17 17 17 17 17 17 17 16 16 16 16 16 16 16 16 16 16 16 16 16 16 16 16 16 16 16 16 16 16 16 16 16 16 16 16 16 16 16 16 16 16
17 17 17 17 17 17 17 17 17 16 16 16 16 16 16 16 16 16 16 16 16 16 16 16 16 16 16 16 16 16 16 16 16 16 16 16 16 16 16 16 16 16 16
17 17 17 17 17 17 17 17 17 17 16 16 16 16 16 16 16 16 16 16 16 16 16 16 16 16 16 16 16 16 16 16 16 16 16 16 16 16 16 16 16 15 15
18 18 17 17 17 17 17 17 17 17 17 16 16 16 16 16 16 16 16 16 16 16 16 16 16 16 16 16 16 16 15 15 15 15 15 15 15 15 15 15 15 15 15
18 18 17 17 17 17 17 17 17 17 17 16 16 16 16 16 16 16 16 16 16 16 16 16 15 15 15 15 15 15 15 15 15 15 15 15 15 15 15 15 15 15 15
18 18 18 17 17 17 17 17 17 17 17 17 16 16 16 16 16 16 16 16 16 16 15 15 15 15 15 15 15 15 15 15 15 15 15 15 15 15 15 15 15 15 15
18 18 18 17 17 17 17 17 17 17 17 17 16 16 16 16 16 16 16 16 15 15 15 15 15 15 15 15 15 15 15 15 15 15 15 15 15 15 15 14 14 14 14
18 18 18 17 17 17 17 17 17 17 16 16 16 16 16 16 16 16 16 15 15 15 15 15 15 15 15 15 15 15 14 15 15 14 14 14 14 14 14 14 14 14 14
18 18 18 17 17 17 17 17 17 17 16 16 16 16 16 16 16 16 15 15 15 15 15 15 15 15 15 15 14 14 14 14 14 14 14 14 14 14 14 14 14 14 14
18 18 18 17 17 17 17 17 17 16 16 16 16 16 16 16 16 16 15 15 15 15 15 15 15 14 14 14 14 14 14 14 14 14 14 14 14 14 14 14 14 14 14
18 18 18 17 17 17 17 17 16 16 16 16 16 16 16 16 16 16 15 15 15 15 15 15 15 14 14 14 14 14 14 13 13 13 13 14 14 14 14 14 14 13 13
18 18 18 17 17 17 17 17 16 16 16 16 16 16 16 16 16 15 15 15 15 15 15 15 14 14 14 14 14 14 14 13 13 13 13 13 13 13 13 13 13 13 13
18 18 18 17 17 17 17 17 16 16 16 16 16 16 16 16 16 15 15 15 15 15 15 15 14 14 14 14 14 14 14 14 13 13 13 13 13 13 13 13 13 13 13
18 18 18 17 17 17 17 17 16 16 16 16 16 16 16 15 15 15 15 15 15 15 15 15 14 14 14 14 14 14 14 14 14 13 13 13 13 13 13 12 12 12 12
18 18 17 17 17 17 17 16 16 16 16 16 16 16 16 15 15 15 15 15 15 15 14 14 14 14 14 14 14 14 14 14 13 13 13 12 12 12 12 12 12 12 12
Wind_Speed
1 2 6 8 9 9 9 9 10 10 10 11 11 12 13 13 13 13 12 12 12 13 12 12 12 12 11 11 11 10 10 10 10 9 9 9 9 9 8 8 8 7 8
4 4 7 8 9 9 9 10 10 10 11 11 11 12 12 13 13 13 13 13 13 12 12 12 12 12 11 11 10 10 10 10 10 10 9 9 9 8 8 7 7 7 8
5 5 7 8 9 9 10 10 10 11 11 11 11 12 12 12 12 13 13 13 12 12 12 12 11 11 11 10 10 10 11 11 11 10 9 7 7 8 7 7 8 8 8
7 6 8 8 9 9 10 10 10 11 11 11 12 12 12 12 12 13 13 12 12 12 11 11 11 11 11 11 11 11 11 11 11 10 8 7 6 7 7 7 7 8 8
6 7 8 9 10 10 10 10 10 11 11 11 11 11 11 12 12 12 12 12 11 11 11 11 11 11 11 11 11 11 11 11 10 9 8 7 6 7 8 7 7 7 7
6 7 9 9 10 10 10 10 11 11 11 11 11 11 11 12 12 12 11 11 11 11 10 10 10 10 11 11 11 11 11 11 10 8 7 6 6 7 8 8 7 7 7
5 7 9 10 10 10 10 10 10 11 11 11 11 11 11 11 11 11 10 10 10 10 10 10 10 10 11 11 11 11 11 11 10 8 7 6 7 8 8 8 8 7 8
7 7 8 10 10 10 10 10 10 10 10 10 10 10 10 10 10 10 10 10 10 10 10 9 9 9 10 10 11 11 11 11 9 8 7 6 8 8 8 8 8 8 8
7 7 6 8 8 9 10 10 9 9 9 10 9 9 9 9 9 9 9 9 9 9 9 9 9 9 9 10 11 11 11 12 9 7 6 6 8 9 9 9 9 8 8
6 5 5 6 6 7 7 8 8 8 8 8 8 7 7 7 7 7 7 8 8 8 8 8 8 8 9 10 10 11 11 10 8 7 6 7 9 9 9 9 9 8 8
5 4 5 5 5 6 6 6 6 6 7 6 5 5 5 5 5 5 6 7 7 7 7 7 7 8 8 9 10 10 10 8 8 7 7 8 9 10 10 10 9 9 9
5 5 4 4 4 5 5 5 4 3 4 4 4 4 5 4 4 5 6 6 6 6 6 6 7 7 7 7 8 9 9 9 7 7 8 10 10 11 10 10 9 9 9
5 5 5 5 5 5 3 4 3 2 2 3 4 5 5 4 3 4 4 4 4 4 4 5 7 7 7 6 6 7 8 8 7 7 9 10 11 11 10 10 9 9 9
4 4 5 5 5 5 4 3 3 3 2 2 3 5 6 4 3 3 3 3 4 4 5 5 5 6 6 7 7 7 8 7 7 7 9 11 11 12 11 11 11 11 11
3 3 5 5 5 4 3 2 3 3 3 3 4 6 7 4 3 3 3 4 5 6 5 4 5 5 5 6 7 7 7 7 8 8 8 11 11 11 12 12 11 12 12
3 3 5 5 5 5 3 2 2 3 3 4 4 6 7 6 5 3 3 4 4 6 6 5 5 4 4 5 5 6 7 7 7 8 8 9 11 11 12 11 11 11 11
3 4 5 5 5 5 4 3 3 3 5 4 4 6 7 7 7 5 4 3 4 7 7 6 6 5 5 5 5 5 6 6 6 7 7 8 8 10 11 11 11 10 10
5 5 5 6 5 4 3 3 3 4 5 4 5 6 7 7 8 7 4 3 5 7 6 4 4 4 4 4 4 4 4 5 6 6 6 7 7 7 9 11 11 11 10
6 6 5 5 5 5 4 4 4 4 4 5 6 6 6 8 9 8 5 5 7 5 3 4 4 3 4 3 3 4 4 3 4 6 5 5 6 7 7 8 9 10 10
5 6 6 5 4 5 4 4 4 4 3 4 5 5 7 7 8 8 5 5 6 4 4 3 4 3 3 3 4 4 4 3 4 4 3 5 6 6 7 8 8 9 9
4 5 5 5 5 4 3 3 3 2 2 1 2 5 7 7 7 7 4 4 4 4 4 4 3 4 3 3 4 4 4 5 5 4 4 4 5 6 8 8 8 8 8
5 5 5 5 5 5 4 3 3 3 2 1 1 3 5 6 6 7 5 4 3 4 4 4 3 3 2 2 3 3 3 4 4 4 3 3 3 4 6 7 8 8 8
5 6 6 5 5 5 5 3 3 3 2 2 1 1 1 5 6 7 6 5 4 4 4 3 3 4 2 0 2 3 3 1 1 3 3 3 3 3 3 5 6 7 7
5 5 6 6 5 4 5 5 5 4 3 3 2 2 1 3 5 7 7 6 4 3 3 3 3 2 3 1 0 1 2 4 3 0 2 3 2 2 2 3 5 5 6
6 5 5 6 5 4 5 6 5 4 3 2 2 2 1 1 3 6 6 5 4 3 3 3 3 3 2 3 2 1 1 2 2 3 0 2 3 2 1 2 3 4 5
4 4 5 6 5 4 5 5 6 6 5 4 3 3 2 1 1 3 5 4 4 3 3 3 3 3 2 3 2 2 2 2 2 2 2 1 1 2 2 1 2 3 3
Wind_Direction
173 179 121 110 107 105 104 102 99 98 95 91 90 91 91 91 90 88 87 87 86 85 83 83 84 82 81 80 81 80 78 81 87 84 84 84 85 88 89 89 90 89 95
158 149 116 109 107 106 104 103 103 100 98 94 94 94 93 93 91 88 88 87 86 85 84 83 82 80 78 79 79 79 80 83 86 82 81 80 82 89 94 94 96 96 99
137 131 119 114 112 110 107 104 104 103 101 99 97 96 95 95 94 91 89 88 86 84 84 84 81 79 76 75 76 77 78 82 82 79 76 73 76 85 96 97 96 95 95
134 130 124 119 115 112 110 108 104 105 104 103 99 98 98 98 97 94 91 88 86 83 81 82 81 78 76 74 75 77 76 79 80 76 71 65 66 85 93 95 95 94 95
128 127 126 121 117 114 113 112 108 108 107 106 104 102 101 99 98 95 93 90 86 84 81 80 79 77 74 74 76 75 76 75 77 72 67 61 63 84 90 91 92 92 94
129 130 130 126 122 119 118 116 113 112 112 110 108 106 103 100 98 95 95 93 90 86 83 79 76 76 73 72 74 76 77 74 72 65 63 63 76 90 90 88 89 92 94
132 135 133 130 124 120 119 116 112 113 114 113 111 109 108 105 102 100 99 96 91 89 85 81 77 74 72 69 73 77 77 75 71 68 63 69 86 93 92 89 87 89 93
136 132 133 130 127 124 123 121 116 115 114 116 115 113 111 110 106 104 103 100 96 93 88 83 79 75 71 68 71 74 74 72 74 70 67 72 86 91 93 93 92 90 91
129 125 125 131 132 132 129 126 126 122 119 119 122 121 115 113 109 106 103 104 100 97 93 85 80 78 73 71 70 73 74 72 70 68 72 73 84 89 92 94 91 89 91
129 129 136 137 138 142 139 135 135 134 131 128 127 124 121 120 117 111 107 106 103 98 93 84 77 75 74 75 74 74 71 67 68 63 67 78 82 88 93 93 91 89 89
134 145 152 154 157 157 154 149 148 148 147 142 141 139 125 117 119 120 118 110 103 95 90 84 76 71 69 68 71 69 67 68 69 67 68 75 82 87 90 89 88 87 90
161 167 165 171 175 171 160 150 158 158 154 151 150 139 135 128 129 123 120 116 105 94 82 77 66 64 65 62 64 67 68 69 67 67 68 73 79 85 87 86 86 88 90
175 170 166 168 169 165 155 151 151 140 143 142 137 143 137 133 126 107 103 93 83 87 73 60 60 69 75 75 74 73 72 73 69 65 69 75 78 82 85 86 85 85 85
166 169 163 155 152 156 147 149 151 140 142 145 146 141 134 128 116 108 104 97 85 87 80 74 79 82 82 83 85 82 77 74 70 68 70 78 79 80 81 80 82 81 84
149 153 149 150 149 147 138 146 138 146 144 140 130 137 136 132 129 119 111 100 92 92 90 85 81 79 80 81 83 85 82 79 77 72 70 76 78 77 78 78 79 79 82
146 138 140 148 148 140 137 138 140 136 127 120 126 135 137 135 129 115 106 97 94 97 95 91 88 85 81 82 77 83 85 85 84 77 73 73 74 74 75 77 77 80 85
154 138 134 142 141 136 141 144 126 123 115 106 111 125 128 129 126 116 105 98 102 103 98 90 81 80 78 73 64 68 78 83 86 83 79 74 68 66 68 71 73 77 84
144 133 131 135 133 134 133 127 113 115 106 100 103 112 121 124 124 119 112 101 104 101 98 89 75 74 68 69 67 58 64 76 83 87 84 77 72 68 66 68 70 73 82
145 138 132 132 134 134 122 109 105 101 98 102 103 100 107 114 120 121 117 115 111 101 93 94 81 89 87 79 77 64 50 55 66 80 81 82 80 76 71 69 66 68 76
140 139 137 134 131 118 104 91 81 77 74 86 98 104 108 117 122 121 120 119 115 101 85 88 93 78 88 89 84 65 47 48 54 67 76 84 86 83 79 72 65 60 67
138 143 142 139 139 127 117 111 105 107 105 98 101 110 116 121 124 124 121 118 113 111 113 107 104 86 72 84 79 54 33 38 49 47 57 71 70 76 81 78 74 68 64
154 159 142 145 152 151 148 143 148 145 141 136 102 94 117 131 133 131 127 129 122 116 108 105 109 108 99 82 99 87 38 12 16 31 40 60 55 72 75 77 79 78 73
159 166 162 168 168 164 151 127 106 83 68 63 69 86 130 139 135 132 135 135 132 131 135 134 132 132 150 281 92 124 126 191 312 352 21 42 46 57 71 84 86 87 84
176 174 167 172 171 168 151 147 152 156 169 193 184 179 156 135 134 140 141 141 144 143 146 155 145 139 143 163 21 87 139 152 147 352 344 2 25 51 55 86 87 88 90
178 177 172 165 168 166 157 162 162 165 180 173 150 146 141 130 140 148 147 148 153 156 162 155 140 139 142 147 151 132 102 89 107 135 189 331 355 350 22 95 101 98 101
174 169 164 161 165 165 159 160 165 170 169 159 159 163 170 169 163 160 153 151 158 162 170 168 157 148 146 138 133 130 140 141 157 140 157 202 295 317 348 38 107 120 121
Height
1535 1535 1535 1534 1534 1534 1534 1534 1534 1534 1534 1533 1533 1533 1533 1533 1533 1533 1532 1532 1532 1532 1532 1531 1531 1531 1531 1531 1530 1530 1530 1529 1530 1530 1530 1530 1530 1530 1530 1530 1530 1530 1530
1535 1535 1535 1535 1535 1535 1534 1534 1534 1534 1534 1534 1534 1534 1534 1534 1534 1533 1533 1533 1533 1533 1533 1532 1532 1532 1532 1532 1532 1531 1531 1531 1531 1531 1531 1531 1531 1531 1531 1531 1531 1531 1530
1535 1535 1535 1535 1535 1535 1535 1535 1535 1535 1535 1535 1535 1535 1535 1535 1535 1534 1534 1534 1534 1534 1533 1533 1533 1533 1533 1533 1532 1532 1532 1532 1532 1532 1532 1532 1532 1532 1532 1532 1532 1531 1531
1536 1536 1536 1536 1536 1536 1536 1536 1536 1536 1536 1536 1536 1536 1536 1535 1535 1535 1535 1535 1535 1534 1534 1534 1534 1534 1534 1533 1533 1533 1533 1533 1533 1533 1533 1533 1532 1532 1532 1532 1532 1532 1532
1537 1537 1537 1536 1536 1536 1536 1536 1536 1536 1537 1537 1537 1537 1537 1536 1536 1536 1536 1536 1536 1535 1535 1535 1535 1535 1534 1534 1534 1534 1534 1534 1534 1534 1533 1533 1533 1533 1533 1533 1533 1532 1532
1538 1538 1537 1537 1537 1537 1537 1537 1537 1537 1537 1538 1538 1538 1538 1538 1537 1537 1537 1537 1537 1536 1536 1536 1536 1536 1536 1535 1535 1535 1535 1535 1534 1534 1534 1534 1533 1533 1533 1533 1533 1533 1533
1538 1539 1538 1538 1538 1538 1538 1538 1538 1538 1538 1539 1539 1539 1539 1539 1539 1538 1538 1538 1538 1538 1537 1537 1537 1537 1537 1537 1536 1536 1536 1536 1535 1535 1534 1534 1534 1534 1533 1533 1533 1533 1533
1540 1540 1539 1539 1539 1539 1539 1539 1539 1539 1539 1540 1540 1540 1540 1540 1540 1540 1540 1540 1539 1539 1539 1539 1539 1539 1538 1538 1538 1537 1537 1537 1536 1535 1535 1534 1534 1534 1533 1533 1533 1533 1533
1541 1541 1540 1540 1540 1540 1540 1540 1540 1540 1541 1541 1541 1541 1542 1542 1541 1541 1541 1541 1541 1541 1541 1541 1540 1540 1540 1540 1539 1539 1538 1538 1537 1536 1536 1535 1535 1534 1534 1534 1534 1534 1533
1542 1542 1542 1542 1542 1542 1542 1542 1542 1542 1542 1542 1543 1543 1543 1543 1543 1543 1543 1543 1543 1542 1542 1542 1542 1541 1541 1541 1540 1540 1539 1539 1538 1537 1537 1536 1535 1535 1534 1534 1534 1534 1534
1542 1542 1543 1543 1543 1543 1543 1543 1543 1543 1543 1544 1544 1544 1544 1544 1544 1544 1544 1544 1544 1544 1544 1544 1543 1543 1542 1542 1542 1541 1541 1540 1539 1538 1538 1537 1536 1535 1535 1535 1534 1534 1534
1542 1543 1543 1543 1544 1544 1544 1544 1544 1544 1544 1545 1545 1545 1545 1545 1545 1545 1545 1545 1545 1545 1545 1545 1545 1544 1544 1543 1543 1542 1542 1541 1540 1540 1539 1538 1537 1536 1536 1535 1535 1534 1533
1543 1543 1544 1544 1544 1544 1545 1545 1545 1545 1545 1545 1545 1546 1546 1546 1546 1546 1546 1546 1546 1546 1546 1546 1546 1546 1545 1545 1544 1544 1543 1542 1542 1541 1541 1540 1539 1538 1537 1536 1535 1534 1532
1544 1544 1544 1545 1545 1545 1545 1546 1546 1546 1546 1546 1546 1546 1546 1546 1546 1547 1547 1547 1547 1547 1547 1547 1547 1547 1546 1546 1546 1545 1545 1544 1543 1543 1542 1541 1540 1540 1539 1537 1536 1535 1532
1544 1544 1545 1545 1546 1546 1546 1546 1546 1546 1546 1547 1547 1547 1547 1547 1547 1547 1547 1548 1548 1548 1548 1548 1548 1547 1547 1547 1547 1546 1546 1546 1545 1544 1544 1543 1542 1542 1541 1539 1538 1537 1536
1544 1545 1545 1546 1546 1546 1546 1546 1547 1547 1547 1547 1547 1547 1548 1548 1548 1548 1548 1548 1548 1549 1549 1549 1548 1548 1548 1548 1548 1548 1547 1547 1547 1546 1546 1545 1544 1544 1543 1542 1541 1540 1539
1544 1545 1545 1546 1546 1547 1547 1547 1547 1547 1547 1547 1547 1547 1548 1548 1548 1548 1548 1549 1549 1549 1550 1549 1550 1549 1549 1549 1549 1549 1549 1548 1548 1548 1547 1547 1546 1546 1545 1544 1543 1542 1542
1544 1545 1545 1546 1546 1547 1547 1547 1547 1547 1548 1548 1548 1548 1548 1549 1549 1549 1549 1549 1550 1550 1550 1550 1550 1550 1550 1550 1550 1550 1550 1549 1549 1549 1549 1548 1548 1547 1547 1546 1545 1544 1543
1544 1545 1545 1546 1546 1547 1547 1547 1547 1548 1548 1548 1548 1548 1549 1549 1549 1550 1550 1550 1550 1551 1551 1551 1551 1551 1550 1550 1550 1550 1550 1550 1550 1550 1549 1549 1549 1549 1548 1548 1547 1546 1545
1544 1544 1545 1546 1547 1547 1547 1547 1548 1548 1548 1548 1548 1549 1549 1549 1550 1550 1550 1550 1550 1551 1551 1551 1551 1551 1551 1550 1550 1551 1551 1551 1551 1551 1550 1550 1550 1550 1549 1549 1548 1548 1547
1543 1544 1545 1546 1546 1547 1547 1547 1547 1548 1548 1548 1549 1549 1549 1549 1550 1550 1550 1550 1550 1551 1551 1551 1551 1551 1551 1551 1551 1551 1551 1551 1551 1551 1551 1551 1551 1550 1550 1550 1549 1549 1548
1542 1543 1544 1545 1546 1546 1546 1547 1547 1548 1548 1548 1549 1549 1549 1549 1550 1550 1550 1550 1550 1550 1550 1551 1551 1550 1551 1551 1551 1550 1551 1553 1552 1552 1552 1551 1551 1551 1550 1550 1550 1549 1549
1541 1542 1543 1544 1545 1546 1546 1546 1547 1547 1548 1548 1548 1548 1549 1549 1550 1550 1550 1550 1550 1550 1550 1550 1550 1550 1550 1551 1551 1551 1551 1551 1552 1553 1552 1552 1552 1551 1551 1550 1550 1550 1549
1539 1541 1542 1543 1544 1544 1545 1546 1546 1546 1547 1547 1548 1548 1548 1549 1549 1549 1549 1550 1550 1550 1550 1550 1550 1550 1550 1550 1550 1551 1551 1551 1551 1552 1553 1552 1552 1551 1551 1551 1550 1550 1549
1538 1539 1540 1542 1542 1543 1544 1545 1545 1545 1546 1547 1547 1547 1547 1548 1548 1548 1549 1549 1549 1549 1549 1549 1549 1549 1549 1549 1549 1549 1550 1550 1550 1550 1551 1551 1551 1551 1551 1550 1550 1549 1549
1536 1537 1539 1540 1541 1542 1542 1543 1544 1544 1545 1545 1546 1546 1546 1547 1547 1547 1548 1548 1548 1548 1548 1548 1548 1548 1548 1549 1549 1549 1549 1549 1549 1549 1549 1550 1550 1550 1550 1550 1549 1549 1548